Regional Weather Roundup
Issued by NWS

Home | Current Version | Previous Version | Graphics & Text | Print | Product List | Glossary On
Versions: 1 2 3 4 5 6 7 8 9 10 11 12 13 14 15 16 17 18 19 20 21 22 23 24 25 26 27 28 29 30 31 32 33 34 35 36 37 38 39 40 41 42 43 44 45 46 47 48 49 50
637
ASUS43 KDTX 241201
RWRMI
MICHIGAN HOURLY REGIONAL WEATHER ROUNDUP
NATIONAL WEATHER SERVICE DETROIT/PONTIAC MI
800 AM EDT SAT SEP 24 2016

NOTE: "FAIR" INDICATES FEW OR NO CLOUDS BELOW 12,000 FEET WITH NO
SIGNIFICANT WEATHER AND/OR OBSTRUCTION TO VISIBILITY.

MIZ047>049-052>055-059>063-066>070-074>076-081>083-241300-
SOUTHEAST LOWER MICHIGAN

CITY           SKY/WX    TMP DP  RH WIND       PRES   REMARKS
ADRIAN         CLOUDY    60  54  80 E12       30.23R
6HR MIN TEMP:  60; 6HR MAX TEMP:  62;

ALMA           CLEAR     48  48 100 N8        30.28R
ANN ARBOR      CLEAR     56  51  84 N6        30.23R
BAD AXE        CLEAR     45  45 100 CALM      30.29R
CARO           CLEAR     50  48  93 CALM      30.27R
DETROIT CITY   CLEAR     57  52  83 N5        30.24R
6HR MIN TEMP:  56; 6HR MAX TEMP:  61;

DETROIT        PTCLDY    57  51  80 NE7       30.24R
6HR MIN TEMP:  56; 6HR MAX TEMP:  63;

FLINT          CLEAR     52  49  89 NE3       30.26R
6HR MIN TEMP:  51; 6HR MAX TEMP:  57;

GROSSE ILE     PTCLDY    59  53  80 NE9G16    30.22R
6HR MIN TEMP:  59; 6HR MAX TEMP:  62;

HILLSDALE      CLOUDY    59  54  82 NE6       30.22R
HOWELL         PTCLDY    54  52  93 N3        30.24R
6HR MIN TEMP:  54; 6HR MAX TEMP:  58;


CITY           SKY/WX    TMP DP  RH WIND       PRES   REMARKS
JACKSON        CLOUDY    56  54  93 NE7       30.24R
6HR MIN TEMP:  54; 6HR MAX TEMP:  59;

LAMBERTVILLE   CLOUDY    62  54  75 NE6       30.22R
6HR MIN TEMP:  62; 6HR MAX TEMP:  64;

LANSING        CLEAR     52  48  86 N5        30.26R
6HR MIN TEMP:  51; 6HR MAX TEMP:  58;

LAPEER         FAIR      49  48  97 CALM      30.26R
MASON          MOCLDY    53  51  94 CALM      30.25R
MONROE         CLOUDY    59  54  83 N5        30.22R
6HR MIN TEMP:  59; 6HR MAX TEMP:  64;

MT. CLEMENS    PTCLDY    53  49  87 NE10      30.22R
6HR MIN TEMP:  53; 6HR MAX TEMP:  60;

PONTIAC        PTCLDY    54  50  86 NE5       30.24R
6HR MIN TEMP:  54; 6HR MAX TEMP:  60;

PORT HOPE        N/A     60  48  64 E13       30.27R
6HR MIN TEMP:  60; 6HR MAX TEMP:  61;

PORT HURON     CLEAR     48  46  93 CALM      30.26R
TRI CITIES     CLOUDY    52  50  93 NW3       30.29R
6HR MIN TEMP:  48; 6HR MAX TEMP:  52;

MIDLAND        FAIR      49  48  97 CALM      30.27S
6HR MIN TEMP:  46; 6HR MAX TEMP:  50;

TROY           CLEAR     57  50  77 NE7       30.26R
SAGINAW HB     CLOUDY    50  48  93 CALM      30.27R
$$
MIZ043>046-050>051-056>058-064>065-071>073-077>080-241300-
SOUTHWEST LOWER MICHIGAN

CITY           SKY/WX    TMP DP  RH WIND       PRES   REMARKS
BATTLE CREEK   CLOUDY    57  53  86 NE10      30.24R
6HR MIN TEMP:  55; 6HR MAX TEMP:  58;

BENTON HARBOR  CLOUDY    58  53  84 E7        30.20R
6HR MIN TEMP:  58; 6HR MAX TEMP:  61;

BIG RAPIDS     CLOUDY    51  49  92 N3        30.28R
6HR MIN TEMP:  50; 6HR MAX TEMP:  54;

COLDWATER      CLOUDY    59  55  87 NE9       30.22R
6HR MIN TEMP:  58; 6HR MAX TEMP:  62;

FREMONT        FAIR      52  49  89 E5        30.25R
HOLLAND        CLEAR     54  50  86 E8        30.23S
6HR MIN TEMP:  54; 6HR MAX TEMP:  58;

GRAND RAPIDS   PTCLDY    52  48  86 E8        30.25R
6HR MIN TEMP:  52; 6HR MAX TEMP:  55;

IONIA          FAIR      50  48  93 NE3       30.25R
6HR MIN TEMP:  49; 6HR MAX TEMP:  55;

KALAMAZOO      CLOUDY    57  52  83 NE5       30.24R
6HR MIN TEMP:  55; 6HR MAX TEMP:  60;

LUDINGTON      CLOUDY    51  49  93 CALM      30.27R
6HR MIN TEMP:  48; 6HR MAX TEMP:  54;

MARSHALL       CLOUDY    56  54  92 NE3       30.23R
6HR MIN TEMP:  55; 6HR MAX TEMP:  59;

MUSKEGON       PTCLDY    54  49  83 E7        30.25R
6HR MIN TEMP:  53; 6HR MAX TEMP:  59;

SOUTH HAVEN    PTCLDY    56  54  93 E5        30.22R
$$
MIZ016>042-241300-
NORTHERN LOWER MICHIGAN

CITY           SKY/WX    TMP DP  RH WIND       PRES   REMARKS
ALPENA         CLEAR     42  39  89 CALM      30.33R
6HR MIN TEMP:  39; 6HR MAX TEMP:  45;

BEAVER ISLAND  CLEAR     45  45 100 CALM      30.32R FOG
6HR MIN TEMP:  45; 6HR MAX TEMP:  48;

BELLAIRE       CLEAR     42  40  96 CALM      30.32R FOG
6HR MIN TEMP:  40; 6HR MAX TEMP:  47;

CADILLAC       CLOUDY    49  46  90 E5        30.28R
CHARLEVOIX     CLEAR     48  47  98 SE3       30.35R
6HR MIN TEMP:  47; 6HR MAX TEMP:  51;

FRANKFORT      CLOUDY    54  47  77 E5        30.29R
GAYLORD        CLEAR     43  38  82 CALM      30.32R
6HR MIN TEMP:  42; 6HR MAX TEMP:  50;

GRAYLING         N/A     39  39  98 CALM      30.32R FOG
6HR MIN TEMP:  37; 6HR MAX TEMP:  42;

HARBOR SPRINGS CLOUDY    44  43  97 NE5       30.32R
HOUGHTON LAKE  CLOUDY    46  44  93 NE5       30.31R
6HR MIN TEMP:  40; 6HR MAX TEMP:  46;

MANISTEE       CLOUDY    51  49  92 E5        30.28R
OSCODA         PTCLDY    46  45  95 CALM      30.29R
6HR MIN TEMP:  46; 6HR MAX TEMP:  58;

PELLSTON       CLEAR     38  36  92 CALM      30.33R
6HR MIN TEMP:  38; 6HR MAX TEMP:  42;

ROGERS CITY    CLEAR     41  39  93 SW3       30.33R
TRAVERSE CITY  CLOUDY    49  46  90 CALM      30.30R
6HR MIN TEMP:  48; 6HR MAX TEMP:  54;

$$
MIZ007>008-015-241300-
EASTERN UPPER MICHIGAN

CITY           SKY/WX    TMP DP  RH WIND       PRES   REMARKS
KINROSS        CLEAR     45  43  93 E3        30.34R
6HR MIN TEMP:  43; 6HR MAX TEMP:  49;

MACKINAC ISLAN PTCLDY    49  49 100 SW3       30.32R
NEWBERRY       CLEAR     41  40  97 CALM      30.32S
6HR MIN TEMP:  40; 6HR MAX TEMP:  46;

S. S. MARIE    CLEAR     46  43  89 E3        30.33R
6HR MIN TEMP:  46; 6HR MAX TEMP:  50;

MUNISING         N/A     44  43  96 S3        30.30R
6HR MIN TEMP:  44; 6HR MAX TEMP:  48;

$$
MIZ004>006-011>014-085-241300-
CENTRAL UPPER MICHIGAN

CITY           SKY/WX    TMP DP  RH WIND       PRES   REMARKS
MANISTIQUE     MOCLDY    44  42  93 CALM      30.30S
6HR MIN TEMP:  44; 6HR MAX TEMP:  47;

ESCANABA       CLOUDY    49  48  97 CALM      30.30R
6HR MIN TEMP:  47; 6HR MAX TEMP:  54;

MENOMINEE      CLOUDY    61  51  70 SE8       30.28R
6HR MIN TEMP:  60; 6HR MAX TEMP:  62;

SAWYER-GWINN   CLEAR     41  39  93 CALM      30.31R
$$
MIZ001>003-009>011-084-241300-
WESTERN UPPER MICHIGAN

CITY           SKY/WX    TMP DP  RH WIND       PRES   REMARKS
IRON MOUNTAIN  CLOUDY    52  47  83 CALM      30.27S
6HR MIN TEMP:  49; 6HR MAX TEMP:  53;

HOUGHTON       CLOUDY    53  45  74 E6        30.27F
6HR MIN TEMP:  51; 6HR MAX TEMP:  54;

COPPER HARBOR    N/A     49  47  93 CALM      30.29R
6HR MIN TEMP:  48; 6HR MAX TEMP:  55;

IRONWOOD       CLOUDY    55  49  80 E8        30.23S
6HR MIN TEMP:  54; 6HR MAX TEMP:  57;

$$

ABBREVIATIONS USED IN REMARKS
   TC - TEMPERATURE IN CELSIUS
  WCI - WIND CHILL INDEX
   HX - HEAT INDEX
  VSB - VISIBILITY





USA.gov is the U.S. government's official web portal to all federal, state and local government web resources and services.